Flag for Canada Weather past 2 weeks in Winnipeg, Manitoba, Canada

Now
57 °F

Mostly cloudy.


Feels Like: 55 °F
Forecast: 46 / 61 °F
Wind: 12 mph from West

Location: Winnipeg Int. Airportman.

Current Time: Oct 1, 2014 at 9:21:59 PM

Latest Report: Oct 1, 2014 at 9:00 PM


Visibility: 15 mi

Pressure: 29.64 "Hg

Humidity: 77%

Dew point: 50 °F

Location of WinnipegLocation

Historic Weather in Winnipeg — Graph

°F

Winnipeg temperature yesterday

Maximum temperature yesterday: 61 °F (at 4:00 PM)
Minimum temperature yesterday: 41 °F (at 6:45 AM)
Average temperature yesterday: 50 °F

Past Weeks' High & Low Weather Summary

 TemperatureHumidityPressure
High86 °F (Sep 26, 3:00 PM)100% (Sep 20, 6:00 AM)30.36 "Hg (Sep 20, 6:00 AM)
Low37 °F (Sep 18, 4:00 AM)30% (Sep 22, 3:00 PM)29.42 "Hg (Oct 1, 6:00 AM)
Average58 °F79%29.96 "Hg
* Reported Sep 16 8:00 PM — Oct 1 8:00 PM, Winnipeg, Weather by CustomWeather, © 2014

Note: Actual official high and low records may vary slightly from our data, if they occured in-between our weather recording intervals... More about our weather records

Advertising

Winnipeg weather history for previous 24 hours

 ConditionsComfort  
Time TempWeatherWind HumidityBarometerVisibility
8:00 PM
Oct 1
59 °FMostly cloudy.13 mph72%29.61 "Hg15 mi
7:00 PM59 °FMostly cloudy.14 mph77%29.57 "Hg15 mi
6:00 PM61 °FMostly cloudy.15 mph72%29.54 "Hg15 mi
5:00 PM61 °FMore clouds than sun.12 mph72%29.52 "Hg15 mi
4:00 PM59 °FMostly cloudy.14 mph77%29.52 "Hg15 mi
3:00 PM59 °FMostly cloudy.10 mph77%29.51 "Hg15 mi
2:00 PM59 °FMostly cloudy.15 mph77%29.51 "Hg15 mi
1:00 PM59 °FOvercast.15 mph77%29.51 "Hg15 mi
12:00 PM59 °FOvercast.16 mph77%29.50 "Hg15 mi
11:00 AM57 °FOvercast.18 mph82%29.49 "Hg15 mi
10:00 AM57 °FOvercast.24 mph82%29.47 "Hg15 mi
9:00 AM57 °FOvercast.24 mph82%29.45 "Hg15 mi
8:00 AM57 °FSprinkles. Overcast.21 mph88%29.43 "Hg10 mi
7:00 AM57 °FSprinkles. Overcast.24 mph88%29.42 "Hg10 mi
6:00 AM57 °FSprinkles. Overcast.25 mph82%29.42 "Hg12 mi
5:00 AM55 °FSprinkles. Overcast.20 mph88%29.45 "Hg15 mi
4:00 AM55 °FOvercast.20 mph82%29.48 "Hg15 mi
3:00 AM55 °FOvercast.23 mph77%29.52 "Hg15 mi
2:00 AM55 °FOvercast.22 mph77%29.56 "Hg15 mi
1:00 AM54 °FOvercast.22 mph82%29.59 "Hg15 mi
12:00 AM54 °FOvercast.17 mph82%29.62 "Hg15 mi
11:00 PM
Sep 30
52 °FSprinkles. Mostly cloudy.14 mph88%29.65 "Hg15 mi
10:00 PM54 °FSprinkles. Overcast.12 mph82%29.69 "Hg12 mi
9:00 PM54 °FSprinkles. Mostly cloudy.16 mph77%29.70 "Hg12 mi
Weather by CustomWeather, © 2014

See weather overviewHow to use our weather pages